sat.trackr.live / text

‹ back to catalog

ONEWEB-0203

NORAD 48235 · 2021-031AB

PAYLOAD ACTIVE UNKNOWN

§ Identity

Operator
Country
UK
Launch date
2021-04-25
Launch site
VOSTO
Launch vehicle
Mass (kg)
RCS (m²)

Purposes: comms

External: N2YO · Heavens-Above · Gunter

§ Orbital elements

Epoch: 2026-09-19T18:56:00.831264Z

Period
109.55 min
Inclination
87.8900°
Eccentricity
0.0001942
Mean motion
13.14501926 rev/d
Perigee alt
1,204.3 km
Apogee alt
1,207.3 km
Semi-major
7,583.9 km
B*
6.7425e-4
RAAN
270.8347°
Arg perigee
82.9934°
Mean anomaly
277.1417°
Rev number
26,070

§ Raw data

ONEWEB-02031 48235U 21031AB  26262.78889851  .00000263  00000+0  67425-3 0  99982 48235  87.8900 270.8347 0001942  82.9934 277.1417 13.14501926260704

JSON: /api/v1/satellites/48235 · /tle

For live sub-satellite position, see the globe view (requires WebGL).

§ Visibility from observer

Set your observer location to see the next 7 days of passes ≥ 10°. The values pass through the URL so the page stays shareable.

No JS? Fill the form by hand. The geolocation button needs JavaScript.